Regional Weather Roundup
Issued by NWS Charleston, SC

Current Version | Previous Version | Text Only | Print | Product List | Glossary Off
Versions: 1 2 3 4 5 6 7 8 9 10 11 12 13 14 15 16 17 18 19 20 21 22 23 24 25 26 27 28 29 30 31 32 33 34 35 36 37 38 39 40 41 42 43 44 45 46 47 48 49 50
000 ASUS42 KCHS 282112 RWRCHS REGIONAL WEATHER ROUNDUP NATIONAL WEATHER SERVICE CHARLESTON SC 500 PM EDT THU MAY 28 2015 NOTE: "FAIR" INDICATES FEW OR NO CLOUDS BELOW 12,000 FEET WITH NO SIGNIFICANT WEATHER AND/OR OBSTRUCTIONS TO VISIBILITY. NOT ALL STATIONS ARE QUALITY CONTROLLED BY THE NATIONAL WEATHER SERVICE. USE DATA WITH CAUTION...ESPECIALLY DEWPOINT OBSERVATIONS. SCZ027-030-031-034>040-042>050-282200- ...SOUTHEAST SOUTH CAROLINA... CITY SKY/WX TMP DP RH WIND PRES REMARKS N CHARLESTON MOSUNNY 82 60 47 SE14 30.17F WATERFRONT PAR N/A 77 66 68 SE9 30.16F MOUNT PLEASANT LGT RAIN 81 66 61 E5 30.19S JOHNS ISLAND CLEAR 81 64 57 E8 30.19S THUNDER PINOPOLIS N/A 86 66 51 SE5 30.10F MONCKS CORNER FAIR 84 64 51 E7G16 30.16F SUMMERVILLE FAIR 86 64 48 SE8 30.17S BEAUFORT MCAS MOSUNNY 83 67 58 SE10G17 30.16F BEAUFORT ARPT FAIR 81 68 65 SE9 30.16F HILTON HEAD IS MOSUNNY 81 68 65 E8 30.17F WALTERBORO CLOUDY 84 66 54 E9 30.15F ALLENDALE FAIR 88 64 45 SE10 30.12F ...SOUTHERN MIDLANDS AND PEE DEE... CITY SKY/WX TMP DP RH WIND PRES REMARKS GEORGETOWN NOT AVBL KINGSTREE NOT AVBL ORANGEBURG MOSUNNY 87 64 46 E10 30.14F BARNWELL FAIR 88 64 45 E8 30.14S AIKEN FAIR 86 59 39 SE8 30.18S MANNING MOCLDY 82 63 51 SE6 30.15F COLUMBIA MOSUNNY 89 62 40 SE10 30.13F SUMTER MOSUNNY 88 66 48 E13 30.14F HX 90 FLORENCE MOSUNNY 87 65 47 SE9G17 30.15F MYRTLE BEACH SUNNY 81 63 54 S9 30.22S N MYRTLE BEACH SUNNY 78 61 55 SE10 30.20F $$ GAZ063-065-086>088-099>101-113>116-118-119-134>141-150-282200- ...SOUTHEAST GEORGIA... CITY SKY/WX TMP DP RH WIND PRES REMARKS SAVANNAH ARPT MOSUNNY 84 61 45 E13G22 30.15F HUNTER AAF SUNNY 83 65 56 E13 30.13F FORT STEWART MOSUNNY 85 64 49 SE12 30.12F STATESBORO PTSUNNY 86 68 55 SE8 30.13F SYLVANIA PTCLDY 89 67 48 SE6 30.14S HX 91 CLAXTON FAIR 86 63 45 E12G17 30.13F ...CSRA...CENTRAL AND FAR SOUTHEAST GEORGIA... CITY SKY/WX TMP DP RH WIND PRES REMARKS THOMSON MOSUNNY 88 68 51 SE5 30.19S HX 91 AUGUSTA-BUSH MOSUNNY 87 63 44 VRB3 30.13S AUGUSTA-DANIEL SUNNY 87 63 44 S10 30.15F SWAINSBORO FAIR 88 63 42 E7 30.15S VIDALIA MOSUNNY 88 61 40 SE7 30.13F EASTMAN FAIR 88 63 43 S10 30.15F HAZLEHURST FAIR 88 59 37 E6 30.12S ALMA MOSUNNY 87 61 41 SE6 30.12F WAYCROSS MOSUNNY 87 62 43 S8 30.12S JESUP FAIR 88 63 42 SE9 30.14S BAXLEY FAIR 88 61 40 SE10 30.12S BRUNSWICK N/A 82 61 47 E14 30.15F VSB 1 SAINT SIMONS NOT AVBL $$ SCZ027-028-034-036>038-045-046-048>050-GAZ119-141-282200- ...LAKE AND SUPPLEMENTAL COASTAL OBSERVATIONS... STATION/POSITION TIME TEMP WIND PRES WAVE SWELL AIR SEA DIR/SP/G HT/PER HT/PER/DIR (UTC) (F) (DEG/KT/KT) (MB) (FT/S) (FT/S/D) UPR LAKE MARION NOT AVBL WINYAH BAY 1945 77 120/ 8 1022.0 LAKE MURRAY 2000 85 160/ 9/ 10 1020.3F ACE BASIN NERRS NOT AVBL FORT PULASKI 2000 78 79 90/ 9/ 12 1022.4F SAPELO ISLAND 2000 83 80/ 8 1022.0S $$ ANZ835-935-AMZ111-154-330-350-352-354-370-450-454-472-282200- ...C-MAN AND BUOY OBSERVATIONS... STATION/POSITION TIME TEMP WIND PRES WAVE SWELL AIR SEA DIR/SP/G HT/PER HT/PER/DIR (UTC) (F) (DEG/KT/KT) (MB) (FT/S) (FT/S/D) BUOY 41004 2050 76 79 90/ 10/ 14 1021.7F 3/ 8 3/ 8 BUOY 41008 2050 77 79 100/ 10/ 10 1021.4F 3/ 8 3/100/ 8 FOLLY BEACH CMAN 2100 76 100/ 6/ 8 1022.3F CAPERS NEARSHORE 2008 76 100/ 10/ 12 1022.5F FRIPP NEARSHORE 2000 78 100/ 10/ 10 1021.6F STATION/POSITION TIME TEMP WIND PRES WAVE SWELL AIR SEA DIR/SP/G HT/PER HT/PER/DIR (UTC) (F) (DEG/KT/KT) (MB) (FT/S) (FT/S/D) 5E ST. MARYS GA 2021 80 N/A 3/ 8 FRYING PAN BUOY 2050 77 78 110/ 8/ 10 1023.2F 3/ 8 3/130/ 8 BUOY 41025 2050 75 78 140/ 6/ 8 1023.5F 4/ 8 3/ 90/ 8 CAPE LOOKOUT NC 2100 76 160/ 4/ 5 1022.9F BUOY 41002 2050 74 74 40/ 14/ 17 1021.7F 6/ 8 3/ 90/ 8 BUOY 41010 2020 77 81 70/ 14/ 17 1020.1F ST AUGUSTINE FL 2100 77 81 90/ 10/ 12 1021.1F $$

USA.gov is the U.S. government's official web portal to all federal, state and local government web resources and services.